Location: �quirre
(50.4736°N, 2.2351°E)
Time: 14:58:41
(UTC+00:00)

Meteor 1-16 Rocket - Pass Details

Date: 07 August 2020
Orbit: 791 x 906 km, 81.2° (Epoch: 18 September)

Event Time Altitude Azimuth Distance (km) Brightness Sun altitude
Rises 03:38:24 0° 189° (S) 3,291 6.8 -7.5°
Reaches altitude 10° 03:40:45 10° 190° (S) 2,375 6.1 -7.2°
Maximum altitude 03:46:07 88° 106° (ESE) 824 4.2 -6.5°
Drops below altitude 10° 03:51:41 10° 13° (NNE) 2,457 7.4 -5.8°
Sets 03:54:08 0° 13° (NNE) 3,414 8.2 -5.5°
